Location: Little Baddow
(51.7333°N, 0.5667°E)
Time: 10:44:43
(UTC+00:00)

Cosmos 1459 Rocket - Pass Details

Date: 08 November 2025
Orbit: 936 x 998 km, 83.0° (Epoch: 09 December)

Event Time Altitude Azimuth Distance (km) Brightness Sun altitude
Rises 04:43:28 0° 348° (NNW) 3,731 6.9 -21.9°
Reaches altitude 10° 04:46:00 10° 346° (NNW) 2,779 6.2 -21.5°
Maximum altitude 04:52:21 69° 265° (W) 1,063 3.9 -20.6°
Drops below altitude 10° 04:58:37 10° 183° (S) 2,748 6.3 -19.6°
Sets 05:01:08 0° 181° (S) 3,686 7.0 -19.2°
